Dansville, NY

7:01 PM EDT on July 24, 2016 (GMT -0400)
Dansville Municipal

Weather History for KDSV - February, 2013

Change the Weather History Date:

Sunday, February 17, 2013

  Actual Average Record
Temperature  
Mean Temperature 16 °F -  
Max Temperature 19 °F 34 °F 62 °F (1981)
Min Temperature 12 °F 15 °F -14 °F (1973)
Degree Days  
Heating Degree Days 50    
Moisture  
Dew Point 11 °F    
Average Humidity 76    
Maximum Humidity 93    
Minimum Humidity 54    
Precipitation  
Precipitation 0.01 in - - ()
Sea Level Pressure  
Sea Level Pressure 29.98 in    
Wind  
Wind Speed 8 mph (NW)    
Max Wind Speed 20 mph    
Max Gust Speed 28 mph    
Visibility 6 miles    
Events Fog , Snow    
Averages and records for this station are not official NWS values.
T = Trace of Precipitation, MM = Missing Value Source: NWS Daily Summary

Daily Weather History Graph

Daily Weather History Graph

Search for Another Location

Airport or City:

Trip Planner

Search our weather history database for the weather conditions in past years. The results will help you decide how hot, cold, wet, or windy it might be!

Date:

Astronomy

Feb. 17, 2013 Rise Set
Actual Time 7:04 AM EST 5:45 PM EST
Civil Twilight 6:35 AM EST 6:14 PM EST
Nautical Twilight 6:02 AM EST 6:47 PM EST
Astronomical Twilight 5:30 AM EST 7:20 PM EST
Moon 10:45 AM EST (2/17) 12:49 AM EST (2/17)
Length of Visible Light 11h 38m
Length of Day
10h 41m
Waxing Crescent, 49% of the Moon is Illuminated
Feb 17
Waxing Crescent
Feb 17
First Quarter
Feb 25
Full
Mar 4
Last Quarter
Mar 11
New

Hourly Weather History & Observations

Time (EST) Temp. Windchill Dew Point Humidity Pressure Visibility Wind Dir Wind Speed Gust Speed Precip Events Conditions
12:54 AM 19.9 °F - 10.9 °F 68% 29.94 in 10.0 mi Calm Calm - N/A   Clear
1:54 AM 19.9 °F - 10.9 °F 68% 29.93 in 10.0 mi Calm Calm - N/A   Clear
2:54 AM 18.0 °F - 12.0 °F 78% 29.92 in 10.0 mi Calm Calm - N/A   Partly Cloudy
3:54 AM 18.0 °F - 12.9 °F 81% 29.92 in 10.0 mi Calm Calm - N/A   Overcast
4:41 AM 19.4 °F - 12.2 °F 74% 29.88 in 4.0 mi Calm Calm - 0.00 in Snow Light Snow
4:46 AM 19.4 °F - 12.2 °F 74% 29.88 in 1.8 mi Calm Calm - 0.00 in Snow Light Snow
4:54 AM 19.0 °F 13.9 °F 14.0 °F 81% 29.94 in 1.2 mi NW 3.5 mph - 0.00 in Snow Light Snow
5:18 AM 19.4 °F 10.4 °F 15.8 °F 86% 29.88 in 2.0 mi NW 6.9 mph - 0.00 in Snow Light Snow
5:25 AM 19.4 °F 10.4 °F 15.8 °F 86% 29.88 in 1.8 mi NNW 6.9 mph - 0.00 in Snow Light Snow
5:47 AM 19.4 °F 9.5 °F 15.8 °F 86% 29.88 in 1.2 mi NNW 8.1 mph - 0.00 in Snow Light Snow
5:54 AM 19.0 °F 9.0 °F 16.0 °F 88% 29.94 in 1.2 mi NNW 8.1 mph - 0.00 in Snow Light Snow
6:11 AM 19.4 °F 10.4 °F 17.6 °F 93% 29.89 in 0.8 mi NNW 6.9 mph - 0.00 in Snow Light Snow
6:19 AM 19.4 °F 10.4 °F 17.6 °F 93% 29.89 in 1.0 mi NNW 6.9 mph - 0.01 in Snow Light Snow
6:33 AM 19.4 °F 7.9 °F 17.6 °F 93% 29.89 in 2.0 mi NW 10.4 mph - 0.01 in Snow Light Snow
6:39 AM 19.4 °F 7.2 °F 15.8 °F 86% 29.89 in 3.0 mi NW 11.5 mph - 0.01 in Snow Light Snow
6:49 AM 19.4 °F 6.6 °F 15.8 °F 86% 29.89 in 9.0 mi NW 12.7 mph - 0.01 in   Overcast
6:54 AM 19.0 °F 6.8 °F 15.1 °F 85% 29.95 in 6.0 mi NW 11.5 mph - 0.01 in Snow Light Snow
7:26 AM 19.4 °F 5.5 °F 15.8 °F 86% 29.91 in 2.5 mi NW 15.0 mph - 0.00 in Snow Light Snow
7:35 AM 19.4 °F 5.5 °F 15.8 °F 86% 29.91 in 1.2 mi NW 15.0 mph - 0.00 in Snow Light Snow
7:52 AM 17.6 °F 2.2 °F 14.0 °F 86% 29.91 in 2.5 mi NW 17.3 mph - 0.00 in Snow Light Snow
7:54 AM 18.0 °F 3.6 °F 14.0 °F 84% 29.97 in 2.5 mi NW 15.0 mph - 0.00 in Snow Light Snow
8:13 AM 17.6 °F 3.2 °F 14.0 °F 86% 29.92 in 6.0 mi NW 15.0 mph - 0.00 in Snow Light Snow
8:24 AM 17.6 °F 3.7 °F 12.2 °F 79% 29.93 in 10.0 mi NNW 13.8 mph - 0.00 in   Overcast
8:54 AM 18.0 °F 6.1 °F 12.9 °F 81% 29.98 in 10.0 mi NW 10.4 mph - 0.00 in   Overcast
9:40 AM 17.6 °F 4.3 °F 10.4 °F 73% 29.93 in 10.0 mi NW 12.7 mph - 0.00 in   Mostly Cloudy
9:54 AM 18.0 °F 4.8 °F 10.9 °F 74% 30.00 in 9.0 mi NNW 12.7 mph - 0.00 in Snow Light Snow
10:42 AM 17.6 °F 3.7 °F 10.4 °F 73% 29.94 in 1.8 mi NW 13.8 mph - 0.00 in Snow Light Snow
10:54 AM 17.1 °F 2.0 °F 12.9 °F 84% 30.00 in 0.8 mi NW 16.1 mph - 0.00 in Snow Light Snow
11:01 AM 17.6 °F 2.7 °F 12.2 °F 79% 29.95 in 0.5 mi NNW 16.1 mph - 0.00 in Fog , Snow Snow
11:11 AM 17.6 °F 3.7 °F 12.2 °F 79% 29.95 in 2.0 mi NNW 13.8 mph - 0.00 in Snow Light Snow
11:19 AM 17.6 °F 2.7 °F 12.2 °F 79% 29.95 in 1.0 mi NW 16.1 mph 24.2 mph 0.00 in Snow Light Snow
11:24 AM 17.6 °F 2.2 °F 10.4 °F 73% 29.95 in 2.0 mi NNW 17.3 mph - 0.00 in Snow Light Snow
11:31 AM 17.6 °F 3.7 °F 8.6 °F 68% 29.95 in 9.0 mi WNW 13.8 mph 23.0 mph 0.00 in Snow Light Snow
11:35 AM 17.6 °F 1.7 °F 10.4 °F 73% 29.95 in 1.8 mi NW 18.4 mph 25.3 mph 0.00 in Snow Light Snow
11:45 AM 17.6 °F 3.2 °F 10.4 °F 73% 29.95 in 3.0 mi NW 15.0 mph - 0.00 in Snow Light Snow
11:54 AM 19.0 °F 3.6 °F 9.0 °F 65% 30.01 in 10.0 mi NNW 18.4 mph 26.5 mph 0.00 in   Overcast
12:54 PM 16.0 °F -0.9 °F 3.0 °F 57% 30.02 in 6.0 mi NW 19.6 mph 27.6 mph 0.00 in   Mostly Cloudy
1:54 PM 16.0 °F 0.1 °F 5.0 °F 62% 30.04 in 10.0 mi NW 17.3 mph 26.5 mph 0.00 in   Overcast
2:54 PM 16.0 °F -0.4 °F 1.9 °F 54% 30.04 in 10.0 mi NW 18.4 mph 26.5 mph N/A   Mostly Cloudy
3:54 PM 15.1 °F -2.0 °F 3.0 °F 59% 30.06 in 10.0 mi NW 19.6 mph 27.6 mph N/A   Overcast
4:54 PM 16.0 °F 1.7 °F 1.9 °F 54% 30.07 in 10.0 mi NW 13.8 mph 26.5 mph N/A   Overcast
5:54 PM 15.1 °F -0.1 °F 3.9 °F 61% 30.10 in 10.0 mi NW 15.0 mph 19.6 mph N/A   Overcast
6:54 PM 15.1 °F 3.3 °F 7.0 °F 70% 30.12 in 9.0 mi NW 9.2 mph - 0.00 in   Overcast
7:44 PM 15.8 °F 3.4 °F 10.4 °F 79% 30.08 in 3.0 mi NW 10.4 mph - 0.00 in Snow Light Snow
7:54 PM 15.1 °F 3.3 °F 10.0 °F 80% 30.14 in 3.0 mi NW 9.2 mph - 0.00 in Snow Light Snow
8:02 PM 15.8 °F 5.1 °F 10.4 °F 79% 30.08 in 5.0 mi WNW 8.1 mph - 0.00 in Snow Light Snow
8:54 PM 14.0 °F 0.5 °F 5.0 °F 67% 30.17 in 10.0 mi WNW 11.5 mph 20.7 mph 0.00 in   Overcast
9:54 PM 12.9 °F 2.6 °F 3.9 °F 67% 30.19 in 10.0 mi WNW 6.9 mph - N/A   Overcast
10:54 PM 12.9 °F 2.6 °F 3.9 °F 67% 30.22 in 10.0 mi NW 6.9 mph - N/A   Overcast
11:54 PM 12.9 °F 6.9 °F 3.0 °F 65% 30.24 in 10.0 mi WNW 3.5 mph - N/A   Mostly Cloudy